Regional Weather Roundup
Issued by NWS Lake Charles, LA

Home | Current Version | Previous Version | Text Only | Print | Product List | Glossary On
Versions: 1 2 3 4 5 6 7 8 9 10 11 12 13 14 15 16 17 18 19 20 21 22 23 24 25 26 27 28 29 30 31 32 33 34 35 36 37 38 39 40 41 42 43 44 45 46 47 48 49 50
000
ASUS44 KLCH 261710
RWRLCH
REGIONAL WEATHER ROUNDUP
NATIONAL WEATHER SERVICE LAKE CHARLES LA
1200 PM CDT THU MAY 26 2016

Note: "fair" indicates few or no clouds below 12,000 feet with no
significant weather and/or obstructions to visibility.


ACROSS SOUTHEAST TEXAS

CITY           SKY/WX    TMP DP  RH WIND       PRES   REMARKS
BEAUMONT       CLOUDY    84  74  71 S17       30.01S
BEAUMONT CITY  CLOUDY    84  74  70 S9G17     30.01S
ORANGE         CLOUDY    84  73  67 S10G17    30.03S
JASPER         CLOUDY    82  73  75 S5        30.01F
$$

ACROSS CENTRAL LOUISIANA

CITY           SKY/WX    TMP DP  RH WIND       PRES   REMARKS
LEESVILLE      PTSUNNY   88  73  62 S13       30.01S
FULLERTON      PTSUNNY   87  71  58 VRB7      29.99F
ALEXANDRIA INT PTSUNNY   87  72  60 SE13      30.00F
ESLER FIELD    MOSUNNY   89  73  59 S9        30.03F
DERIDDER       PTSUNNY   86  70  58 S15       30.04S
OAKDALE        PTSUNNY   84  73  69 S9        30.02F
OPELOUSAS      FAIR      86  73  66 S13G20    30.03F
$$

ACROSS SOUTHWEST AND SOUTH CENTRAL LOUISIANA

CITY           SKY/WX    TMP DP  RH WIND       PRES   REMARKS
SULPHUR        MOSUNNY   85  73  65 S17       30.03F
LAKE CHARLES   MOSUNNY   86  73  65 SE17      30.02F
CHENNAULT INT  PTSUNNY   86  73  66 S14       30.02F
CAMERON PHI    MOSUNNY   82  77  83 SE13G22   30.05S
DEQUINCY       FAIR      85  71  62 S15       30.02S
JENNINGS       FAIR      84  73  70 SE14G22   30.02F
LAFAYETTE      PTSUNNY   86  72  62 S14       30.03F
NEW IBERIA     MOSUNNY   87  71  58 SE17      30.05F
ABBEVILLE      FAIR      85  75  72 S13G20    30.04F
PATTERSON      MOSUNNY   85  74  69 SE12      30.06F
SALT POINT       N/A     84  75  74 VRB6      30.05F
$$

SELECTED SITES ACROSS THE REGION

CITY           SKY/WX    TMP DP  RH WIND       PRES   REMARKS
HOUSTON BUSH   CLOUDY    80  75  84 S9        29.95F
HOUSTON HOBBY  CLOUDY    85  76  74 S12G20    29.94F
GALVESTON      CLOUDY    83  78  85 S17       30.00F
COLLEGE STAT   TSTM      72  72 100 S12G21    29.91F VSB 1/4
CONROE         TSTM      77  76  96 SE12      29.95F FOG
HUNTSVILLE     TSTM      76  72  87 S13G25    29.96R FOG
LUFKIN         CLOUDY    78  74  87 E7        29.96F
SHREVEPORT     CLOUDY    83  73  72 S12G21    29.98F
MONROE         PTSUNNY   86  73  65 S9        30.03F
NATCHEZ MS     MOSUNNY   86  72  62 S13       30.06F
BATON ROUGE    MOSUNNY   87  70  56 E9        30.06F
N.O. INTL ARPT PTSUNNY   87  72  60 SE12      30.09F
SLIDELL        MOSUNNY   85  70  60 SE10      30.10F
$$

MARINE REPORTS

STATION/POSITION TIME  SKY/WX   TEMP    WIND        PRES    VSBY
                                AIR SEA DIR/SP/G
                 (UTC)          (F)     (DEG/KT/KT) (MB)    (MI)
BUOY 30 S HIGH I 1650            81 80  180/ 16/ 17 1015.2F
WVE H/P(F/S)=  4/ 7

SEA RIM ST PARK  1700            81     160/ 12/ 14 1016.9R
PORT ARTHUR      1600               79  160/  9/ 11 1016.7F
SABINE PASS N    1600            81 81  150/ 12/ 16 1017.8F
TEXAS POINT      NOT AVBL
CALCASIEU PASS   1600            80 82  160/ 14/ 17 1015.9F
LK CHARLES BEACH 1600            85 77              1017.1F
MARSH ISLAND     1600            81                   N/A
FRESH WATER LOCK 1600            81 82  140/ 13/ 16 1018.4F
AMERADA PASS     1600            82 76  140/  6/ 11 1018.5F
$$



USA.gov is the U.S. government's official web portal to all federal, state and local government web resources and services.